CANX-7

Last updated on Wed Apr 20 2022 00:03:20 GMT+0000 (Coordinated Universal Time)

1 41788U 16059F 22109.85029961 .06729840 00000+0 33111-1 0 9998 2 41788 98.1943 237.1429 0033462 297.1132 184.6910 15.76952621299749

Satellite not in orbit